Weather History for West Palm Beach, FL

Change the Weather History Date:

Friday, June 14, 2013

  Actual Average Record
Temperature  
Mean Temperature 80 °F 81 °F  
Max Temperature 88 °F 88 °F 98 °F (2011)
Min Temperature 72 °F 74 °F 60 °F (1920)
Degree Days  
Heating Degree Days 0 0  
Month to date heating degree days 0 0  
Since 1 June heating degree days 0 0  
Since 1 July heating degree days 164 233  
Cooling Degree Days 15 16  
Month to date cooling degree days 189 223  
Year to date cooling degree days 1374 1332  
Since 1 June cooling degree days 189 223  
Growing Degree Days 30 (Base 50)    
Moisture  
Dew Point 72 °F    
Average Humidity 80    
Maximum Humidity 100    
Minimum Humidity 59    
Precipitation  
Precipitation 0.02 in 0.29 in 3.55 in (1979)
Month to date precipitation 6.65 3.84  
Year to date precipitation 31.60 22.55  
Snow  
Snow 0.00 in - - ()
Month to date snowfall 0.0  
Since 1 June snowfall 0.0  
Since 1 July snowfall 0.0  
Snow Depth 0.00 in    
Sea Level Pressure  
Sea Level Pressure 29.92 in    
Wind  
Wind Speed 8 mph (SW)    
Max Wind Speed 18 mph    
Max Gust Speed 26 mph    
Visibility 10 miles    
Events Rain , Thunderstorm    
T = Trace of Precipitation, MM = Missing Value Source: NWS Daily Summary

Daily Weather History Graph

Daily Weather History Graph

Search for Another Location

Airport:

Trip Planner

Search our weather history database for the weather conditions in past years. The results will help you decide how hot, cold, wet, or windy it might be!

Date:

Astronomy

Jun. 14, 2013 Rise Set
Actual Time 6:26 AM EDT 8:15 PM EDT
Civil Twilight 6:00 AM EDT 8:41 PM EDT
Nautical Twilight 5:28 AM EDT 9:12 PM EDT
Astronomical Twilight 4:55 AM EDT 9:46 PM EDT
Moon 11:34 AM EDT (6/14) No Moon Set
Length of Visible Light 14h 40m
Length of Day
13h 48m
Waxing Crescent, 30% of the Moon is Illuminated
Jun 14
Waxing Crescent
Jun 16
First Quarter
Jun 23
Full
Jun 30
Last Quarter
Jul 8
New

Hourly Weather History & Observations

Time (EDT) Temp. Heat Index Dew Point Humidity Pressure Visibility Wind Dir Wind Speed Gust Speed Precip Events Conditions
12:53 AM 73.9 °F - 70.0 °F 87% 29.97 in 10.0 mi SSW 4.6 mph - N/A   Partly Cloudy
1:53 AM 73.0 °F - 70.0 °F 90% 29.96 in 10.0 mi Calm Calm - N/A   Partly Cloudy
2:53 AM 73.0 °F - 71.1 °F 93% 29.94 in 10.0 mi South 5.8 mph - N/A   Partly Cloudy
3:53 AM 73.0 °F - 72.0 °F 96% 29.93 in 10.0 mi SW 5.8 mph - N/A   Partly Cloudy
4:53 AM 73.0 °F - 72.0 °F 96% 29.91 in 10.0 mi SSW 3.5 mph - N/A   Partly Cloudy
5:53 AM 73.0 °F - 73.0 °F 100% 29.91 in 10.0 mi SW 6.9 mph - N/A   Scattered Clouds
6:53 AM 73.0 °F - 73.0 °F 100% 29.92 in 10.0 mi West 3.5 mph - N/A   Scattered Clouds
7:53 AM 75.9 °F - 75.0 °F 97% 29.92 in 10.0 mi SW 4.6 mph - N/A   Scattered Clouds
8:53 AM 79.0 °F - 73.9 °F 84% 29.93 in 10.0 mi WSW 6.9 mph - N/A   Scattered Clouds
9:49 AM 80.6 °F 85.4 °F 73.4 °F 79% 29.94 in 10.0 mi West 10.4 mph - N/A   Mostly Cloudy
9:53 AM 80.1 °F 84.2 °F 73.0 °F 79% 29.94 in 10.0 mi WSW 9.2 mph - N/A   Mostly Cloudy
10:44 AM 82.4 °F 87.2 °F 71.6 °F 70% 29.95 in 10.0 mi WSW 11.5 mph - N/A   Mostly Cloudy
10:53 AM 82.0 °F 86.7 °F 72.0 °F 71% 29.95 in 10.0 mi WSW 13.8 mph - N/A   Mostly Cloudy
11:53 AM 84.0 °F 89.0 °F 71.1 °F 65% 29.94 in 10.0 mi West 11.5 mph - N/A   Scattered Clouds
12:53 PM 84.9 °F 90.7 °F 72.0 °F 65% 29.94 in 10.0 mi WSW 9.2 mph - N/A   Scattered Clouds
1:53 PM 87.1 °F 93.6 °F 72.0 °F 61% 29.92 in 10.0 mi WSW 11.5 mph - N/A   Scattered Clouds
2:53 PM 88.0 °F 93.8 °F 71.1 °F 57% 29.90 in 10.0 mi SW 11.5 mph - N/A   Scattered Clouds
3:53 PM 84.9 °F 90.1 °F 71.1 °F 63% 29.89 in 10.0 mi Calm Calm - 0.02 in   Mostly Cloudy
3:59 PM 86.0 °F 91.8 °F 71.6 °F 62% 29.89 in 10.0 mi Variable 3.5 mph - N/A Thunderstorm Thunderstorm
4:17 PM 84.2 °F 90.9 °F 73.4 °F 70% 29.90 in 10.0 mi SE 10.4 mph - N/A   Scattered Clouds
4:39 PM 78.8 °F - 69.8 °F 74% 29.92 in 10.0 mi West 10.4 mph 20.7 mph N/A Thunderstorm Thunderstorm
4:53 PM 75.9 °F - 69.1 °F 79% 29.91 in 10.0 mi West 13.8 mph 26.5 mph 0.00 in Rain , Thunderstorm Light Thunderstorms and Rain
5:15 PM 77.0 °F - 69.8 °F 78% 29.89 in 10.0 mi East 6.9 mph - 0.00 in Rain Light Rain
5:53 PM 82.9 °F 88.8 °F 73.0 °F 72% 29.89 in 10.0 mi East 8.1 mph - 0.00 in   Scattered Clouds
6:53 PM 82.9 °F 88.8 °F 73.0 °F 72% 29.89 in 10.0 mi SE 8.1 mph - N/A   Scattered Clouds
7:53 PM 80.1 °F 82.9 °F 69.1 °F 69% 29.91 in 10.0 mi SSW 13.8 mph 23.0 mph N/A   Scattered Clouds
8:53 PM 77.0 °F - 71.1 °F 82% 29.92 in 10.0 mi South 8.1 mph - N/A   Scattered Clouds
9:53 PM 75.9 °F - 70.0 °F 82% 29.94 in 10.0 mi SSW 4.6 mph - N/A   Scattered Clouds
10:53 PM 75.9 °F - 69.1 °F 79% 29.95 in 10.0 mi SSW 5.8 mph - N/A   Partly Cloudy
11:53 PM 75.0 °F - 69.1 °F 82% 29.94 in 10.0 mi SW 9.2 mph - N/A   Partly Cloudy